When you browse on this site, cookies collect data to enhance your experience and personalize the content and advertising you see.
Visit our Privacy Policy to learn more. By continuing to use the site, you agree to this use of cookies and data.
  • In Spain
  • List of Countries
  • For 7 days
  • Water Temperature
  • Satellite Maps
  • Weather Map
  • Weather Widgets
  • user-avatar
    Login

    Hourly Weather Stahanovo

    Today, 20 January, Sunday

    Time Temperature Precipitation Wind Pressure Humidity
    00:00 -11°C° 0 mm 4 mps 741 mmHg 93%
    01:00 -11°C° 0 mm 4 mps 741 mmHg 93%
    02:00 -11°C° 0 mm 4 mps 742 mmHg 93%
    03:00 -11°C° 0 mm 4 mps 742 mmHg 94%
    04:00 -12°C° 0 mm 5 mps 742 mmHg 95%
    05:00 -12°C° 0 mm 5 mps 742 mmHg 96%
    06:00 -12°C° 0 mm 5 mps 741 mmHg 96%
    07:00 -12°C° 0 mm 5 mps 741 mmHg 95%
    08:00 -12°C° 0 mm 6 mps 741 mmHg 94%
    09:00 -12°C° 0 mm 6 mps 741 mmHg 93%
    10:00 -11°C° 0 mm 6 mps 741 mmHg 92%
    11:00 -12°C° 0 mm 7 mps 741 mmHg 91%
    12:00 -11°C° 0 mm 7 mps 740 mmHg 90%
    13:00 -11°C° 0 mm 8 mps 740 mmHg 88%
    14:00 -11°C° 0 mm 8 mps 740 mmHg 87%
    15:00 -11°C° 0 mm 8 mps 740 mmHg 88%
    16:00 -12°C° 0 mm 7 mps 740 mmHg 88%
    17:00 -12°C° 0 mm 7 mps 739 mmHg 89%
    18:00 -12°C° 0 mm 7 mps 739 mmHg 89%
    19:00 -12°C° 0 mm 7 mps 739 mmHg 88%
    20:00 -12°C° 0 mm 7 mps 739 mmHg 88%
    21:00 -12°C° 0.1 mm 7 mps 739 mmHg 88%
    22:00 -11°C° 0.1 mm 6 mps 739 mmHg 89%
    23:00 -11°C° 0.1 mm 6 mps 738 mmHg 89%

    Tomorrow, 21 January, Monday

    Time Temperature Precipitation Wind Pressure Humidity
    00:00 -12°C° 0.1 mm 6 mps 738 mmHg 91%
    01:00 -14°C° 0.1 mm 6 mps 738 mmHg 92%
    02:00 -13°C° 0.1 mm 5 mps 738 mmHg 93%
    03:00 -14°C° 0.2 mm 5 mps 738 mmHg 94%
    04:00 -14°C° 0.2 mm 5 mps 737 mmHg 94%
    05:00 -15°C° 0.2 mm 4 mps 737 mmHg 94%
    06:00 -15°C° 0.2 mm 4 mps 737 mmHg 95%
    07:00 -15°C° 0.2 mm 4 mps 736 mmHg 95%
    08:00 -14°C° 0.2 mm 3 mps 736 mmHg 95%
    09:00 -13°C° 0.2 mm 3 mps 736 mmHg 95%
    10:00 -12°C° 0.2 mm 3 mps 736 mmHg 95%
    11:00 -12°C° 0.2 mm 3 mps 736 mmHg 94%
    12:00 -11°C° 0.1 mm 4 mps 736 mmHg 91%
    13:00 -10°C° 0.1 mm 4 mps 736 mmHg 88%
    14:00 -11°C° 0.1 mm 5 mps 736 mmHg 85%
    15:00 -11°C° 0 mm 4 mps 737 mmHg 86%
    16:00 -12°C° 0 mm 4 mps 737 mmHg 87%
    17:00 -14°C° 0 mm 4 mps 737 mmHg 89%
    18:00 -15°C° 0 mm 4 mps 738 mmHg 90%
    19:00 -16°C° 0 mm 4 mps 738 mmHg 91%
    20:00 -18°C° 0 mm 4 mps 739 mmHg 92%
    21:00 -18°C° 0 mm 3 mps 739 mmHg 94%
    22:00 -19°C° 0 mm 3 mps 739 mmHg 95%
    23:00 -21°C° 0 mm 3 mps 740 mmHg 96%

    Day after tomorrow, 22 January, Tuesday

    Time Temperature Precipitation Wind Pressure Humidity
    00:00 -21°C° 0 mm 3 mps 740 mmHg 97%
    01:00 -22°C° 0 mm 3 mps 740 mmHg 98%
    02:00 -23°C° 0 mm 3 mps 741 mmHg 99%
    03:00 -23°C° 0 mm 3 mps 741 mmHg 99%
    04:00 -23°C° 0 mm 3 mps 741 mmHg 99%
    05:00 -24°C° 0 mm 3 mps 741 mmHg 99%
    06:00 -24°C° 0 mm 3 mps 742 mmHg 99%
    07:00 -24°C° 0 mm 3 mps 742 mmHg 99%
    08:00 -25°C° 0 mm 3 mps 742 mmHg 99%
    09:00 -23°C° 0 mm 3 mps 743 mmHg 98%
    10:00 -22°C° 0 mm 3 mps 743 mmHg 97%
    11:00 -21°C° 0 mm 3 mps 743 mmHg 96%
    12:00 -21°C° 0 mm 3 mps 743 mmHg 95%
    13:00 -18°C° 0 mm 2 mps 743 mmHg 95%
    14:00 -18°C° 0 mm 2 mps 743 mmHg 95%
    15:00 -19°C° 0 mm 2 mps 743 mmHg 96%
    16:00 -20°C° 0 mm 2 mps 743 mmHg 96%
    17:00 -21°C° 0 mm 2 mps 743 mmHg 97%
    18:00 -20°C° 0 mm 2 mps 743 mmHg 97%
    19:00 -19°C° 0 mm 2 mps 743 mmHg 97%
    20:00 -18°C° 0 mm 2 mps 743 mmHg 97%
    21:00 -17°C° 0.1 mm 2 mps 744 mmHg 96%
    22:00 -17°C° 0.1 mm 2 mps 744 mmHg 96%
    23:00 -16°C° 0.1 mm 2 mps 744 mmHg 96%

    23 January, Wednesday

    Time Temperature Precipitation Wind Pressure Humidity
    00:00 -16°C° 0 mm 2 mps 744 mmHg 96%
    01:00 -16°C° 0 mm 2 mps 744 mmHg 97%
    02:00 -16°C° 0 mm 2 mps 744 mmHg 97%
    03:00 -16°C° 0 mm 2 mps 744 mmHg 97%
    04:00 -16°C° 0 mm 2 mps 744 mmHg 97%
    05:00 -16°C° 0 mm 2 mps 744 mmHg 97%
    06:00 -16°C° 0 mm 2 mps 744 mmHg 97%
    07:00 -16°C° 0 mm 2 mps 745 mmHg 97%
    08:00 -16°C° 0 mm 2 mps 745 mmHg 97%
    09:00 -16°C° 0 mm 3 mps 745 mmHg 97%
    10:00 -15°C° 0 mm 3 mps 745 mmHg 96%
    11:00 -14°C° 0 mm 3 mps 746 mmHg 95%
    12:00 -15°C° 0 mm 3 mps 745 mmHg 94%
    13:00 -15°C° 0 mm 3 mps 745 mmHg 93%
    14:00 -15°C° 0 mm 3 mps 745 mmHg 92%
    15:00 -17°C° 0 mm 3 mps 745 mmHg 90%
    16:00 -18°C° 0 mm 3 mps 745 mmHg 89%
    17:00 -19°C° 0 mm 3 mps 745 mmHg 88%
    18:00 -21°C° 0 mm 3 mps 745 mmHg 85%
    19:00 -21°C° 0 mm 3 mps 746 mmHg 82%
    20:00 -22°C° 0 mm 3 mps 746 mmHg 79%
    21:00 -22°C° 0 mm 3 mps 746 mmHg 79%
    22:00 -22°C° 0 mm 3 mps 746 mmHg 79%
    23:00 -22°C° 0 mm 3 mps 746 mmHg 79%

    24 January, Thursday

    Time Temperature Precipitation Wind Pressure Humidity
    00:00 -22°C° 0 mm 3 mps 746 mmHg 79%
    01:00 -23°C° 0 mm 4 mps 746 mmHg 79%
    02:00 -23°C° 0 mm 4 mps 746 mmHg 79%
    03:00 -22°C° 0 mm 3 mps 745 mmHg 80%
    04:00 -22°C° 0 mm 3 mps 745 mmHg 80%
    05:00 -22°C° 0 mm 3 mps 745 mmHg 81%
    06:00 -21°C° 0 mm 3 mps 745 mmHg 82%
    07:00 -19°C° 0 mm 3 mps 745 mmHg 83%
    08:00 -18°C° 0 mm 3 mps 745 mmHg 85%
    09:00 -17°C° 0 mm 3 mps 745 mmHg 87%
    10:00 -16°C° 0 mm 3 mps 744 mmHg 88%
    11:00 -15°C° 0 mm 3 mps 744 mmHg 90%
    12:00 -14°C° 0 mm 3 mps 744 mmHg 91%
    13:00 -14°C° 0 mm 3 mps 743 mmHg 92%
    14:00 -14°C° 0 mm 3 mps 743 mmHg 92%
    15:00 -14°C° 0 mm 3 mps 743 mmHg 93%
    16:00 -15°C° 0 mm 3 mps 742 mmHg 94%
    17:00 -15°C° 0 mm 3 mps 742 mmHg 95%
    18:00 -14°C° 0.1 mm 3 mps 742 mmHg 96%
    19:00 -14°C° 0.1 mm 3 mps 742 mmHg 96%
    20:00 -14°C° 0.1 mm 4 mps 742 mmHg 96%
    21:00 -14°C° 0.5 mm 4 mps 741 mmHg 96%
    22:00 -12°C° 0.5 mm 3 mps 741 mmHg 96%
    23:00 -12°C° 0.5 mm 3 mps 741 mmHg 96%

    25 January, Friday

    Time Temperature Precipitation Wind Pressure Humidity
    00:00 -12°C° 0.4 mm 3 mps 741 mmHg 96%
    01:00 -12°C° 0.4 mm 3 mps 741 mmHg 96%
    02:00 -12°C° 0.4 mm 3 mps 740 mmHg 96%
    03:00 -12°C° 0.1 mm 3 mps 740 mmHg 96%
    04:00 -13°C° 0.1 mm 3 mps 740 mmHg 96%
    05:00 -14°C° 0.1 mm 4 mps 740 mmHg 96%
    06:00 -14°C° 0.1 mm 4 mps 740 mmHg 96%
    07:00 -14°C° 0.1 mm 4 mps 740 mmHg 96%
    08:00 -15°C° 0.1 mm 4 mps 740 mmHg 96%
    09:00 -15°C° 0.1 mm 4 mps 740 mmHg 96%
    10:00 -14°C° 0.1 mm 4 mps 740 mmHg 96%
    11:00 -14°C° 0.1 mm 5 mps 740 mmHg 95%
    12:00 -14°C° 0.1 mm 5 mps 740 mmHg 95%
    13:00 -14°C° 0.1 mm 5 mps 740 mmHg 95%
    14:00 -14°C° 0.1 mm 5 mps 740 mmHg 94%
    15:00 -14°C° 0.1 mm 5 mps 740 mmHg 94%
    16:00 -14°C° 0.1 mm 5 mps 740 mmHg 94%
    17:00 -14°C° 0.1 mm 5 mps 739 mmHg 94%
    18:00 -14°C° 0.1 mm 5 mps 739 mmHg 94%
    19:00 -15°C° 0.1 mm 5 mps 739 mmHg 94%
    20:00 -15°C° 0.1 mm 5 mps 739 mmHg 94%
    21:00 -15°C° 0.1 mm 4 mps 739 mmHg 94%
    22:00 -15°C° 0.1 mm 4 mps 739 mmHg 94%
    23:00 -15°C° 0.1 mm 4 mps 738 mmHg 95%
    Show more